Date String (YYYY-MM-DD hh:mm:ss) UTC,Instrument flags,Ambient pressure (hPa),Sample flow (lpm),Bypass flow (lpm),Sample temperature (°C),Ambient temperature (°C),ASC tube jacket temperature (°C),LED temperature (°C),Box temperature (°C),Sample RH (%),Span deviation,Mass concentration (μg/m³),Mass concentration (μg/m³),Mass concentration (μg/m³)
DateTimeUTC,F1_M11,P_M11,Q1_M11,Q2_M11,T1_M11,T2_M11,T3_M11,T4_M11,T5_M11,U1_M11,ZSPAN_M11,X2_M11,X0_M11,X1_M11
2023-02-13 04:00:00,,0824.2,4.99,0.00,22.1,20.5,00.0,31.1,23.9,13.1,0000.0,0005.20,0012.88,0004.45
2023-02-13 04:01:00,,0824.3,4.99,0.00,22.2,21.2,00.0,31.1,24.1,13.0,0000.0,0005.20,0012.83,0004.43
2023-02-13 04:02:00,,0824.2,5.01,0.00,22.3,22.3,00.0,31.1,24.4,12.9,0000.0,0005.16,0012.69,0004.42
2023-02-13 04:03:00,,0824.2,4.99,0.00,22.4,22.9,00.0,31.1,24.5,12.8,0000.0,0005.16,0012.75,0004.42
2023-02-13 04:04:00,,0824.3,4.97,0.00,22.5,22.6,00.0,31.2,24.5,12.8,0000.0,0005.14,0013.23,0004.41
2023-02-13 04:05:00,,0824.3,4.95,0.00,22.5,22.2,00.0,31.2,24.4,12.7,0000.0,0005.13,0013.91,0004.38
2023-02-13 04:06:00,,0824.2,5.04,0.00,22.5,21.8,00.0,31.2,24.4,12.7,0000.0,0005.10,0013.17,0004.37
2023-02-13 04:07:00,,0824.2,5.00,0.00,22.5,21.6,00.0,31.2,24.3,12.7,0000.0,0005.07,0012.60,0004.37
2023-02-13 04:08:00,,0824.1,5.01,0.00,22.5,21.2,00.0,31.3,24.2,12.7,0000.0,0005.05,0013.46,0004.37
2023-02-13 04:09:00,,0824.1,5.00,0.00,22.4,20.9,00.0,31.3,24.1,12.7,0000.0,0005.00,0013.30,0004.37
2023-02-13 04:10:00,,0824.1,5.00,0.00,22.4,20.7,00.0,31.3,24.0,12.8,0000.0,0004.99,0012.75,0004.37
2023-02-13 04:11:00,,0824.1,5.02,0.00,22.3,20.7,00.0,31.3,24.0,12.8,0000.0,0005.01,0013.05,0004.37
2023-02-13 04:12:00,,0824.1,4.99,0.00,22.3,20.6,00.0,31.2,24.0,12.8,0000.0,0004.95,0012.94,0004.34
2023-02-13 04:13:00,,0824.1,4.98,0.00,22.3,20.5,00.0,31.2,24.0,12.8,0000.0,0004.92,0012.94,0004.31
2023-02-13 04:14:00,,0824.1,5.01,0.00,22.2,20.4,00.0,31.2,23.9,12.8,0000.0,0004.88,0012.86,0004.28
2023-02-13 04:15:00,,0824.1,5.00,0.00,22.2,20.4,00.0,31.2,23.9,12.9,0000.0,0004.83,0012.42,0004.25
2023-02-13 04:16:00,,0824.1,5.01,0.00,22.2,20.3,00.0,31.2,23.9,12.9,0000.0,0004.78,0012.00,0004.22
2023-02-13 04:17:00,,0824.1,5.00,0.00,22.2,20.3,00.0,31.2,23.8,12.9,0000.0,0004.72,0011.90,0004.20
2023-02-13 04:18:00,,0824.1,5.01,0.00,22.1,20.3,00.0,31.2,23.8,12.9,0000.0,0004.69,0011.88,0004.16
2023-02-13 04:19:00,,0824.1,5.00,0.00,22.1,20.2,00.0,31.1,23.8,12.9,0000.0,0004.66,0010.32,0004.13
2023-02-13 04:20:00,,0824.1,4.99,0.00,22.0,20.2,00.0,31.1,23.7,12.9,0000.0,0004.61,0010.56,0004.10
2023-02-13 04:21:00,,0824.2,5.02,0.00,22.1,20.7,00.0,31.1,23.9,12.9,0000.0,0004.56,0011.31,0004.08
2023-02-13 04:22:00,,0824.1,4.98,0.00,22.2,21.9,00.0,31.0,24.2,12.9,0000.0,0004.57,0011.43,0004.07
2023-02-13 04:23:00,,0824.1,4.99,0.00,22.3,22.9,00.0,31.1,24.4,12.8,0000.0,0004.62,0011.94,0004.08
2023-02-13 04:24:00,,0824.1,5.00,0.00,22.4,22.7,00.0,31.1,24.4,12.7,0000.0,0004.64,0012.14,0004.11
2023-02-13 04:25:00,,0824.2,4.98,0.00,22.4,22.2,00.0,31.2,24.4,12.6,0000.0,0004.65,0012.19,0004.13
2023-02-13 04:26:00,,0824.2,4.96,0.00,22.4,21.8,00.0,31.2,24.3,12.6,0000.0,0004.69,0012.17,0004.14
2023-02-13 04:27:00,,0824.2,4.99,0.00,22.4,21.5,00.0,31.2,24.2,12.6,0000.0,0004.71,0011.40,0004.16
2023-02-13 04:28:00,,0824.2,4.99,0.00,22.4,21.2,00.0,31.2,24.1,12.6,0000.0,0004.72,0010.92,0004.17
2023-02-13 04:29:00,,0824.2,5.00,0.00,22.4,21.0,00.0,31.2,24.1,12.6,0000.0,0004.76,0010.66,0004.19
2023-02-13 04:30:00,,0824.2,4.98,0.00,22.4,20.9,00.0,31.2,24.1,12.6,0000.0,0004.78,0011.41,0004.21
2023-02-13 04:31:00,,0824.2,5.01,0.00,22.3,20.8,00.0,31.2,24.1,12.7,0000.0,0004.79,0011.28,0004.22
2023-02-13 04:32:00,,0824.1,4.98,0.00,22.3,20.8,00.0,31.2,24.1,12.7,0000.0,0004.80,0010.31,0004.22
2023-02-13 04:33:00,,0824.1,5.01,0.00,22.3,20.8,00.0,31.2,24.1,12.6,0000.0,0004.77,0009.93,0004.19
2023-02-13 04:34:00,,0824.1,5.02,0.00,22.3,20.7,00.0,31.2,24.1,12.6,0000.0,0004.77,0009.55,0004.17
2023-02-13 04:35:00,,0824.1,5.00,0.00,22.3,20.7,00.0,31.2,24.1,12.5,0000.0,0004.76,0009.52,0004.15
2023-02-13 04:36:00,,0824.1,5.03,0.00,22.3,20.7,00.0,31.2,24.1,12.6,0000.0,0004.74,0009.62,0004.14
2023-02-13 04:37:00,,0824.2,5.01,0.00,22.3,20.7,00.0,31.2,24.1,12.5,0000.0,0004.74,0009.75,0004.11
2023-02-13 04:38:00,,0824.2,5.02,0.00,22.3,20.7,00.0,31.2,24.1,12.4,0000.0,0004.72,0009.73,0004.08
2023-02-13 04:39:00,,0824.2,5.00,0.00,22.3,20.7,00.0,31.2,24.1,12.4,0000.0,0004.68,0009.73,0004.04
2023-02-13 04:40:00,,0824.3,5.01,0.00,22.3,20.7,00.0,31.2,24.1,12.4,0000.0,0004.61,0009.57,0004.00
2023-02-13 04:41:00,,0824.3,4.97,0.00,22.3,20.7,00.0,31.2,24.1,12.4,0000.0,0004.55,0008.70,0003.95
2023-02-13 04:42:00,,0824.3,5.01,0.00,22.3,20.7,00.0,31.2,24.1,12.5,0000.0,0004.55,0008.45,0003.92
2023-02-13 04:43:00,,0824.3,4.99,0.00,22.3,20.7,00.0,31.2,24.1,12.6,0000.0,0004.55,0008.63,0003.93
2023-02-13 04:44:00,,0824.3,4.99,0.00,22.3,20.7,00.0,31.2,24.1,12.6,0000.0,0004.51,0008.95,0003.95
2023-02-13 04:45:00,,0824.3,4.99,0.00,22.3,20.7,00.0,31.2,24.1,12.6,0000.0,0004.50,0009.34,0003.97
2023-02-13 04:46:00,,0824.4,5.03,0.00,22.3,20.7,00.0,31.2,24.1,12.7,0000.0,0004.52,0009.49,0004.01
2023-02-13 04:47:00,,0824.4,5.04,0.00,22.3,21.1,00.0,31.1,24.2,12.7,0000.0,0004.57,0009.69,0004.04
2023-02-13 04:48:00,,0824.4,5.03,0.00,22.4,22.2,00.0,31.1,24.4,12.7,0000.0,0004.58,0009.89,0004.08
2023-02-13 04:49:00,,0824.4,4.98,0.00,22.5,23.2,00.0,31.1,24.7,12.6,0000.0,0004.62,0010.06,0004.13
2023-02-13 04:50:00,,0824.3,5.00,0.00,22.6,23.1,00.0,31.2,24.8,12.6,0000.0,0004.71,0010.86,0004.20
2023-02-13 04:51:00,,0824.3,4.98,0.00,22.7,22.7,00.0,31.2,24.7,12.5,0000.0,0004.81,0011.22,0004.27
2023-02-13 04:52:00,,0824.3,5.06,0.00,22.7,22.3,00.0,31.3,24.6,12.6,0000.0,0004.93,0011.56,0004.36
2023-02-13 04:53:00,,0824.3,5.02,0.00,22.7,22.0,00.0,31.3,24.6,12.5,0000.0,0005.00,0011.98,0004.45
2023-02-13 04:54:00,,0824.3,5.01,0.00,22.7,21.7,00.0,31.3,24.5,12.5,0000.0,0005.05,0012.25,0004.52
2023-02-13 04:55:00,,0824.2,5.02,0.00,22.7,21.5,00.0,31.4,24.5,12.5,0000.0,0005.13,0011.85,0004.56
2023-02-13 04:56:00,,0824.3,4.99,0.00,22.6,21.4,00.0,31.4,24.5,12.5,0000.0,0005.21,0011.52,0004.61
2023-02-13 04:57:00,,0824.4,4.99,0.00,22.6,21.2,00.0,31.4,24.4,12.5,0000.0,0005.29,0011.56,0004.66
2023-02-13 04:58:00,,0824.3,5.01,0.00,22.6,21.1,00.0,31.4,24.4,12.6,0000.0,0005.33,0011.29,0004.72
2023-02-13 04:59:00,,0824.4,5.01,0.00,22.6,21.0,00.0,31.4,24.4,12.6,0000.0,0005.39,0011.59,0004.77
